Weather observations for the past three days for
Lawrenceburg-Lawrence County Airport
Imperial (Metric)
Date Time (cdt) Wind (mph) Vis. (mi.) Weather Sky Cond. Temperature (ºF) Relative Humidity Wind Chill (°F) Heat Index (°F) Pressure Precipitation (in)
Air Dwpt 6 hour altimeter (in) sea level (mb) 1 hr 3 hr 6 hr
Max. Min.
13 23:35 Calm 10.00 Mostly Cloudy SCT044 BKN050 BKN060 68 66.2 94% 29.97 0.0
13 23:15 Calm 10.00 Mostly Cloudy BKN048 BKN055 69.8 68 94% 29.97 0.0
13 22:55 Calm 10.00 Overcast BKN050 OVC060 69.8 68 94% 29.97 0.0
13 22:35 Calm 10.00 Mostly Cloudy SCT050 BKN060 69.8 68 94% 29.97 0.0
13 22:15 Calm 10.00 Mostly Cloudy BKN050 BKN055 71.6 68 88% 29.97 0.0
13 21:55 Calm 10.00 Mostly Cloudy SCT049 BKN055 71.6 68 88% 29.96 0.0
13 21:30 Calm 10.00 Partly Cloudy SCT050 SCT055 71.6 68 88% 29.96 0.0
13 21:15 Calm 10.00 Mostly Cloudy BKN050 BKN060 73.4 68 83% 29.96 0.0
13 20:55 Calm 10.00 Partly Cloudy SCT050 73.4 68 83% 29.94 0.0
13 20:35 Calm 10.00 Fair CLR 75.2 68 78% 76 29.94 0.0
13 20:15 Calm 10.00 Fair CLR 77 68 74% 79 29.94 0.0
13 19:55 Calm 10.00 Fair CLR 77 69.8 79% 79 29.94 0.0
13 19:35 Calm 10.00 Fair CLR 80.6 69.8 70% 84 29.95 0.0
13 19:15 Calm 10.00 Fair CLR 84.2 66.2 55% 87 29.95 0.0
13 18:55 Calm 10.00 Fair CLR 84.2 68 58% 87 29.96 0.0
13 18:35 Calm 10.00 Fair CLR 86 66.2 52% 88 29.96 0.0
13 18:15 Calm 10.00 Fair CLR 87.8 68 52% 91 29.96 0.0
13 17:55 Calm 10.00 Fair CLR 87.8 64.4 46% 89 29.95 0.0
13 17:35 Calm 10.00 Fair CLR 87.8 62.6 43% 88 29.96 0.0
13 17:15 Calm 10.00 Fair CLR 87.8 60.8 40% 88 29.96 0.0
13 16:55 Calm 10.00 Fair CLR 87.8 62.6 43% 88 29.96 0.0
13 16:35 Calm 10.00 Fair CLR 87.8 62.6 43% 88 29.96 0.0
13 16:15 Calm 10.00 Fair CLR 87.8 62.6 43% 88 29.96 0.0
13 15:55 Calm 10.00 A Few Clouds FEW055 87.8 62.6 43% 88 29.97 0.0
13 15:35 Calm 10.00 Mostly Cloudy BKN055 87.8 60.8 40% 88 29.97 0.0
13 15:10 Calm 10.00 Fair CLR 87.8 62.6 43% 88 29.98 0.0
13 14:55 Calm 10.00 A Few Clouds FEW055 86 62.6 46% 87 29.98 0.0
13 14:35 Calm 10.00 Fair CLR 87.8 64.4 46% 89 29.98 0.0
13 14:15 Calm 10.00 A Few Clouds FEW055 86 64.4 49% 87 29.98 0.0
13 13:55 Calm 10.00 A Few Clouds FEW060 87.8 62.6 43% 88 29.99 0.0
13 13:35 Calm 10.00 A Few Clouds FEW050 FEW060 86 64.4 49% 87 29.99 0.0
13 13:10 Calm 10.00 A Few Clouds FEW050 84.2 62.6 48% 85 29.99 0.0
13 12:55 Calm 10.00 A Few Clouds FEW047 84.2 62.6 48% 85 30 0.0
13 12:35 Calm 10.00 Partly Cloudy SCT047 86 66.2 52% 88 30 0.0
13 12:15 Calm 10.00 Fair CLR 84.2 64.4 51% 86 30 0.0
13 11:55 Calm 10.00 Fair CLR 84.2 64.4 51% 86 30 0.0
13 11:35 Calm 10.00 Fair CLR 82.4 64.4 55% 84 30 0.0
13 11:15 Calm 10.00 Fair CLR 82.4 62.6 51% 83 30 0.0
13 10:50 Calm 10.00 Fair CLR 82.4 64.4 55% 84 30 0.0
13 10:15 Calm 10.00 Fair CLR 80.6 64.4 58% 82 30.01 0.0
13 09:55 Calm 10.00 Fair CLR 80.6 64.4 58% 82 30.01 0.0
13 09:35 Calm 10.00 Fair CLR 78.8 62.6 58% 80 30.01 0.0
13 09:15 Calm 10.00 Fair CLR 78.8 64.4 61% 81 30.01 0.0
13 08:50 Calm 10.00 Fair CLR 77 64.4 65% 79 30.01 0.0
13 08:35 Calm 10.00 Fair CLR 75.2 64.4 69% 77 30.01 0.0
13 08:15 Calm 3.00 Fair with Haze CLR 75.2 64.4 69% 77 30.01 0.0
13 07:55 Calm 10.00 Fair CLR 73.4 64.4 74% 30 0.0
13 07:35 Calm 10.00 Fair CLR 69.8 62.6 78% 30 0.0
13 06:55 Calm 10.00 Fair CLR 64.4 62.6 94% 29.99 0.0
13 06:35 Calm 10.00 Fair CLR 60.8 60.8 100% 29.99 0.0
13 06:15 Calm 10.00 Fair CLR 59 59 100% 29.98 0.0
13 05:55 Calm 10.00 Fair CLR 59 59 100% 29.98 0.0
13 05:35 Calm 10.00 Fair CLR 59 59 100% 29.97 0.0
13 05:15 Calm 10.00 Partly Cloudy SCT048 59 59 100% 29.96 0.0
13 04:55 Calm 10.00 Overcast OVC048 59 59 100% 29.96 0.0
13 04:35 Calm 10.00 Overcast OVC049 59 59 100% 29.96 0.0
13 04:15 Calm 10.00 Overcast OVC048 59 59 100% 29.96 0.0
13 03:55 Calm 10.00 Overcast OVC049 59 59 100% 29.96 0.0
13 03:35 Calm 10.00 Overcast OVC050 60.8 60.8 100% 29.96 0.0
13 03:15 Calm 10.00 Overcast OVC050 60.8 59 94% 29.96 0.0
13 02:55 Calm 10.00 Mostly Cloudy BKN050 60.8 60.8 100% 29.96 0.0
13 02:30 Calm 10.00 Overcast OVC049 60.8 60.8 100% 29.96 0.0
13 02:15 Calm 10.00 Overcast OVC049 60.8 60.8 100% 29.96 0.0
13 01:55 Calm 10.00 Overcast OVC050 60.8 60.8 100% 29.97 0.0
13 01:35 Calm 10.00 Mostly Cloudy BKN050 60.8 60.8 100% 29.97 0.0
13 01:15 Calm 10.00 Mostly Cloudy BKN049 60.8 60.8 100% 29.97 0.0
13 00:55 Calm 10.00 Mostly Cloudy BKN050 60.8 60.8 100% 29.97 0.0
13 00:35 Calm 10.00 Overcast OVC050 62.6 60.8 94% 29.97 0.0
13 00:15 Calm 10.00 Overcast OVC050 62.6 60.8 94% 29.98 0.0
12 23:55 Calm 10.00 Overcast OVC050 62.6 62.6 100% 29.98 0.0
12 23:35 Calm 10.00 Mostly Cloudy BKN050 62.6 62.6 100% 29.99 0.0
12 23:15 Calm 10.00 Mostly Cloudy BKN050 BKN110 64.4 62.6 94% 29.99 0.0
12 22:55 Calm 10.00 Mostly Cloudy BKN050 64.4 62.6 94% 29.98 0.0
12 22:35 Calm 10.00 A Few Clouds FEW050 64.4 62.6 94% 29.98 0.0
12 22:15 Calm 10.00 Fair CLR 64.4 62.6 94% 29.99 0.0
12 21:55 Calm 10.00 A Few Clouds FEW049 66.2 62.6 88% 29.99 0.0
12 21:35 Calm 10.00 Fair CLR 66.2 62.6 88% 29.98 0.0
12 21:15 Calm 10.00 Fair CLR 68 62.6 83% 29.98 0.0
12 20:55 Calm 10.00 Fair CLR 68 62.6 83% 29.98 0.0
12 20:35 Calm 10.00 Fair CLR 69.8 60.8 73% 29.98 0.0
12 20:15 Calm 10.00 Fair CLR 71.6 60.8 69% 29.98 0.0
12 19:50 Calm 10.00 Fair CLR 71.6 60.8 69% 29.99 0.0
12 19:35 Calm 10.00 Fair CLR 73.4 60.8 65% 29.99 0.0
12 19:15 Calm 10.00 Fair CLR 73.4 60.8 65% 29.99 0.0
12 18:55 Calm 10.00 A Few Clouds FEW050 75.2 60.8 61% 77 29.99 0.0
12 18:35 Calm 10.00 Partly Cloudy SCT050 77 60.8 57% 79 29.98 0.0
12 18:15 Calm 10.00 A Few Clouds FEW050 78.8 60.8 54% 80 29.97 0.0
12 17:55 Calm 10.00 Mostly Cloudy BKN050 78.8 62.6 58% 80 29.97 0.0
12 17:30 Calm 10.00 A Few Clouds FEW055 80.6 60.8 51% 81 29.97 0.0
12 17:15 Calm 10.00 Fair CLR 80.6 57.2 45% 81 29.97 0.0
12 16:55 Calm 10.00 Fair CLR 80.6 59 48% 81 29.97 0.0
12 16:35 Calm 10.00 A Few Clouds FEW050 82.4 59 45% 82 29.97 0.0
12 16:15 Calm 10.00 A Few Clouds FEW050 80.6 59 48% 81 29.98 0.0
12 15:55 Calm 10.00 A Few Clouds FEW050 80.6 59 48% 81 29.98 0.0
12 15:35 Calm 10.00 Fair CLR 80.6 59 48% 81 29.98 0.0
12 15:15 Calm 10.00 A Few Clouds FEW049 80.6 59 48% 81 29.99 0.0
12 14:55 Calm 10.00 Partly Cloudy SCT049 80.6 59 48% 81 29.99 0.0
12 14:35 Calm 10.00 Fair CLR 80.6 59 48% 81 30 0.0
12 14:15 Calm 10.00 Fair CLR 78.8 59 51% 80 30 0.0
12 13:55 Calm 10.00 Fair CLR 80.6 59 48% 81 30 0.0
12 13:35 Calm 10.00 Fair CLR 78.8 57.2 48% 80 30.01 0.0
12 13:15 Calm 10.00 Fair CLR 78.8 57.2 48% 80 30.01 0.0
12 12:35 Calm 10.00 Fair CLR 78.8 57.2 48% 80 30.02 0.0
12 12:15 Calm 10.00 Fair CLR 77 55.4 47% 79 30.03 0.0
12 11:55 Calm 10.00 Fair CLR 77 57.2 51% 79 30.03 0.0
12 11:35 Calm 10.00 Fair CLR 77 57.2 51% 79 30.03 0.0
12 11:15 Calm 10.00 Fair CLR 77 59 54% 79 30.03 0.0
12 10:55 Calm 10.00 Fair CLR 75.2 59 57% 78 30.03 0.0
12 10:35 Calm 10.00 Fair CLR 75.2 57.2 54% 78 30.04 0.0
12 10:15 Calm 10.00 Fair CLR 75.2 59 57% 78 30.04 0.0
12 09:35 Calm 10.00 Fair CLR 71.6 57.2 61% 30.03 0.0
12 09:15 Calm 10.00 Fair CLR 71.6 59 65% 30.03 0.0
12 08:55 Calm 10.00 Fair CLR 71.6 59 65% 30.03 0.0
12 08:35 Calm 10.00 Fair CLR 69.8 57.2 64% 30.03 0.0
12 08:15 Calm 10.00 Fair CLR 68 55.4 64% 30.02 0.0
12 07:55 Calm 10.00 Fair CLR 66.2 55.4 68% 30.02 0.0
12 07:35 Calm 10.00 Fair CLR 66.2 55.4 68% 30.02 0.0
12 07:15 Calm 10.00 Fair CLR 64.4 57.2 78% 30.02 0.0
12 06:55 Calm 10.00 Fair CLR 60.8 57.2 88% 30.01 0.0
12 06:35 Calm 10.00 Fair CLR 57.2 55.4 94% 30.01 0.0
12 06:15 Calm 10.00 Fair CLR 55.4 55.4 100% 30 0.0
12 05:55 Calm 10.00 Fair CLR 53.6 53.6 100% 30 0.0
12 05:35 Calm 10.00 Fair CLR 53.6 53.6 100% 30 0.0
12 05:15 Calm 10.00 Fair CLR 53.6 53.6 100% 30 0.0
12 04:55 Calm 10.00 Fair CLR 53.6 53.6 100% 30 0.0
12 04:35 Calm 10.00 Fair CLR 53.6 53.6 100% 30 0.0
12 04:15 Calm 10.00 A Few Clouds FEW040 FEW055 53.6 53.6 100% 30 0.0
12 03:55 Calm 10.00 A Few Clouds FEW041 FEW055 55.4 51.8 88% 29.99 0.0
12 03:35 Calm 10.00 Partly Cloudy SCT042 57.2 51.8 82% 30 0.0
12 03:15 Calm 10.00 A Few Clouds FEW041 59 51.8 77% 29.99 0.0
12 02:55 Calm 10.00 Fair CLR 57.2 53.6 88% 29.99 0.0
12 02:35 Calm 10.00 Fair CLR 57.2 53.6 88% 29.99 0.0
12 02:15 Calm 10.00 Fair CLR 55.4 53.6 94% 29.99 0.0
12 01:55 Calm 10.00 Fair CLR 55.4 53.6 94% 29.99 0.0
12 01:30 Calm 10.00 A Few Clouds FEW040 55.4 55.4 100% 29.99 0.0
12 01:15 Calm 10.00 A Few Clouds FEW034 FEW042 57.2 55.4 94% 29.99 0.0
12 00:55 Calm 10.00 Partly Cloudy FEW033 SCT042 SCT050 57.2 55.4 94% 29.99 0.0
12 00:35 Calm 10.00 Partly Cloudy FEW029 SCT038 SCT050 57.2 55.4 94% 29.99 0.0
12 00:15 Calm 10.00 Partly Cloudy SCT037 57.2 53.6 88% 29.99 0.0
11 23:55 Calm 10.00 A Few Clouds FEW031 FEW039 60.8 53.6 77% 29.99 0.0
11 23:35 Calm 10.00 Partly Cloudy FEW030 SCT038 60.8 53.6 77% 29.99 0.0
11 23:15 Calm 10.00 Partly Cloudy SCT035 62.6 53.6 73% 29.99 0.0
11 22:55 Calm 10.00 Mostly Cloudy SCT032 BKN037 62.6 53.6 73% 29.98 0.0
11 22:35 Calm 10.00 Mostly Cloudy BKN033 62.6 55.4 77% 29.99 0.0
11 22:15 Calm 10.00 Overcast BKN031 OVC037 62.6 55.4 77% 29.99 0.0
11 21:55 Calm 10.00 Mostly Cloudy BKN031 BKN037 64.4 55.4 73% 29.99 0.0
11 21:35 Calm 10.00 Mostly Cloudy SCT029 BKN035 62.6 57.2 83% 29.99 0.0
11 21:15 Calm 10.00 Mostly Cloudy BKN034 64.4 57.2 78% 29.98 0.0
11 20:55 Calm 10.00 Mostly Cloudy SCT033 BKN039 64.4 55.4 73% 29.98 0.0
11 20:35 Calm 10.00 Fair CLR 66.2 55.4 68% 29.97 0.0
11 20:15 Calm 10.00 Fair CLR 66.2 55.4 68% 29.97 0.0
11 19:55 Calm 10.00 Fair CLR 66.2 59 78% 29.96 0.0
11 19:35 Calm 10.00 Fair CLR 69.8 55.4 60% 29.95 0.0
11 19:15 Calm 10.00 Fair CLR 71.6 53.6 53% 29.95 0.0
11 18:55 Calm 10.00 Fair CLR 71.6 53.6 53% 29.94 0.0
11 18:35 Calm 10.00 Fair CLR 73.4 51.8 47% 29.95 0.0
11 18:15 Calm 10.00 Fair CLR 75.2 51.8 44% 78 29.94 0.0
11 17:55 Calm 10.00 Fair CLR 75.2 51.8 44% 78 29.95 0.0
11 17:35 Calm 10.00 Fair CLR 75.2 51.8 44% 78 29.95 0.0
11 17:15 Calm 10.00 Fair CLR 75.2 51.8 44% 78 29.95 0.0
11 16:55 Calm 10.00 Fair CLR 75.2 50 41% 78 29.95 0.0
11 16:35 Calm 10.00 Fair CLR 77 51.8 42% 78 29.95 0.0
11 16:15 Calm 10.00 Fair CLR 75.2 50 41% 78 29.96 0.0
11 15:55 Calm 10.00 Fair CLR 75.2 51.8 44% 78 29.96 0.0
11 15:35 Calm 10.00 Fair CLR 75.2 51.8 44% 78 29.97 0.0
11 15:15 Calm 10.00 Fair CLR 75.2 51.8 44% 78 29.97 0.0
11 14:55 Calm 10.00 Fair CLR 75.2 51.8 44% 78 29.98 0.0
11 14:35 Calm 10.00 Fair CLR 75.2 51.8 44% 78 29.98 0.0
11 14:15 Calm 10.00 Fair CLR 75.2 50 41% 78 29.98 0.0
11 13:55 Calm 10.00 Fair CLR 73.4 48.2 41% 29.99 0.0
11 13:35 Calm 10.00 Fair CLR 73.4 50 44% 29.99 0.0
11 13:15 Calm 10.00 Fair CLR 73.4 48.2 41% 30 0.0
11 12:55 Calm 10.00 Fair CLR 73.4 50 44% 30 0.0
11 12:35 Calm 10.00 Fair CLR 71.6 50 47% 30 0.0
11 12:15 Calm 10.00 Fair CLR 71.6 50 47% 30 0.0
11 11:55 Calm 10.00 Fair CLR 71.6 50 47% 30.01 0.0
11 11:35 Calm 10.00 Fair CLR 69.8 50 50% 30 0.0
11 11:15 Calm 10.00 Fair CLR 69.8 51.8 53% 30.01 0.0
11 10:55 Calm 10.00 Fair CLR 69.8 51.8 53% 30.01 0.0
11 10:35 Calm 10.00 Fair CLR 68 51.8 56% 30.01 0.0
11 10:15 Calm 10.00 Fair CLR 68 53.6 60% 30.01 0.0
11 09:55 Calm 10.00 Fair CLR 68 53.6 60% 30.01 0.0
11 09:35 Calm 10.00 Fair CLR 66.2 55.4 68% 30.01 0.0
11 09:15 Calm 10.00 Fair CLR 66.2 53.6 64% 30.01 0.0
11 08:55 Calm 10.00 Fair CLR 64.4 53.6 68% 30.01 0.0
11 08:35 Calm 10.00 Fair CLR 64.4 53.6 68% 30 0.0
11 08:15 Calm 10.00 Fair CLR 64.4 53.6 68% 29.99 0.0
11 07:55 Calm 10.00 Fair CLR 62.6 55.4 77% 30 0.0
11 07:35 Calm 10.00 Fair CLR 62.6 55.4 77% 29.99 0.0
11 07:15 Calm 10.00 Fair CLR 60.8 55.4 83% 29.99 0.0
11 06:55 Calm 10.00 Fair CLR 59 55.4 88% 30 0.0
11 06:35 Calm 10.00 Fair CLR 59 55.4 88% 29.99 0.0
11 06:15 Calm 10.00 Fair CLR 57.2 55.4 94% 29.99 0.0
11 05:35 Calm 10.00 Fair CLR 57.2 53.6 88% 29.99 0.0
11 05:15 Calm 10.00 Fair CLR 57.2 53.6 88% 29.97 0.0
11 04:55 Calm 10.00 Fair CLR 57.2 53.6 88% 29.97 0.0
11 04:35 Calm 10.00 Partly Cloudy FEW036 SCT045 57.2 53.6 88% 29.97 0.0
11 04:15 Calm 10.00 Partly Cloudy FEW035 FEW040 SCT046 59 53.6 82% 29.97 0.0
11 03:55 Calm 10.00 A Few Clouds FEW028 FEW038 FEW048 59 55.4 88% 29.96 0.0
11 03:30 Calm 10.00 Partly Cloudy SCT031 SCT043 SCT048 59 55.4 88% 29.96 0.0
11 03:15 Calm 10.00 Mostly Cloudy SCT031 SCT037 BKN047 59 55.4 88% 29.95 0.0
11 02:55 Calm 10.00 Mostly Cloudy FEW029 SCT035 BKN048 57.2 55.4 94% 29.96 0.0
11 02:35 Calm 10.00 Mostly Cloudy FEW028 SCT033 BKN048 57.2 55.4 94% 29.96 0.0
11 02:15 Calm 10.00 Partly Cloudy FEW028 FEW034 SCT049 60.8 55.4 83% 29.95 0.0
11 01:55 Calm 10.00 A Few Clouds FEW050 FEW055 60.8 55.4 83% 29.95 0.0
11 01:35 Calm 10.00 Partly Cloudy SCT050 60.8 55.4 83% 29.95 0.0
11 01:15 Calm 10.00 Partly Cloudy FEW041 SCT050 60.8 55.4 83% 29.94 0.0
11 00:55 Calm 10.00 Mostly Cloudy FEW033 BKN042 BKN049 60.8 55.4 83% 29.94 0.0
11 00:35 Calm 10.00 Overcast SCT033 BKN043 OVC049 60.8 55.4 83% 29.94 0.0
11 00:15 Calm 10.00 Overcast FEW031 FEW038 OVC046 62.6 55.4 77% 29.95 0.0
10 23:55 Calm 10.00 Overcast FEW031 OVC044 62.6 55.4 77% 29.95 0.0
Date Time (cdt) Wind (mph) Vis. (mi.) Weather Sky Cond. Air Dwpt Max. Min. Relative Humidity Wind Chill (°F) Heat Index (°F) altimeter (in) sea level (mb) 1 hr 3 hr 6 hr
6 hour
Temperature (ºF) Pressure Precipitation (in)